Weather History for Peoria, IL

Change the Weather History Date:

Sunday, January 27, 2013

  Actual Average Record
Temperature  
Mean Temperature 36 °F 25 °F  
Max Temperature 44 °F 33 °F 63 °F (1944)
Min Temperature 27 °F 17 °F -14 °F (1955)
Degree Days  
Heating Degree Days 29 40  
Month to date heating degree days 1037 1080  
Since 1 July heating degree days 3183 3358  
Cooling Degree Days 0 0  
Month to date cooling degree days 0 0  
Year to date cooling degree days 0 0  
Moisture  
Dew Point 29 °F    
Average Humidity 77    
Maximum Humidity 96    
Minimum Humidity 58    
Precipitation  
Precipitation 0.22 in 0.05 in 0.85 in (1949)
Month to date precipitation 1.78 1.57  
Year to date precipitation 1.78 1.57  
Snow  
Snow 0.00 in 0.20 in 3.50 in (1972)
Month to date snowfall 0.2 6.0  
Since 1 July snowfall 3.4 14.2  
Snow Depth 0.00 in    
Sea Level Pressure  
Sea Level Pressure 30.09 in    
Wind  
Wind Speed 12 mph (SSE)    
Max Wind Speed 21 mph    
Max Gust Speed 29 mph    
Visibility 4 miles    
Events Fog , Rain    
T = Trace of Precipitation, MM = Missing Value Source: NWS Daily Summary

Daily Weather History Graph

Daily Weather History Graph

Search for Another Location

Airport:

Trip Planner

Search our weather history database for the weather conditions in past years. The results will help you decide how hot, cold, wet, or windy it might be!

Date:

Astronomy

Jan. 27, 2013 Rise Set
Actual Time 7:12 AM CST 5:10 PM CST
Civil Twilight 6:43 AM CST 5:40 PM CST
Nautical Twilight 6:10 AM CST 6:13 PM CST
Astronomical Twilight 5:38 AM CST 6:45 PM CST
Moon 6:05 PM CST (1/27) 7:05 AM CST (1/27)
Length of Visible Light 10h 56m
Length of Day
9h 57m
Full, 100% of the Moon is Illuminated
Jan 27
Full
Feb 3
Last Quarter
Feb 10
New
Feb 17
First Quarter
Feb 25
Full

Hourly Weather History & Observations

Time (CST) Temp. Windchill Dew Point Humidity Pressure Visibility Wind Dir Wind Speed Gust Speed Precip Events Conditions
12:54 AM 27.0 °F 18.0 °F 16.0 °F 63% 30.37 in 10.0 mi SSE 9.2 mph - N/A   Clear
1:54 AM 27.0 °F 17.3 °F 16.0 °F 63% 30.35 in 10.0 mi SE 10.4 mph - N/A   Clear
2:54 AM 27.0 °F 18.0 °F 16.0 °F 63% 30.33 in 10.0 mi SSE 9.2 mph - N/A   Clear
3:54 AM 27.0 °F 18.7 °F 16.0 °F 63% 30.31 in 10.0 mi SSE 8.1 mph - N/A   Clear
4:54 AM 27.0 °F 18.0 °F 17.1 °F 66% 30.28 in 10.0 mi SSE 9.2 mph - N/A   Clear
5:54 AM 27.0 °F 18.7 °F 17.1 °F 66% 30.29 in 10.0 mi SSE 8.1 mph - N/A   Scattered Clouds
6:54 AM 28.0 °F 18.6 °F 18.0 °F 66% 30.27 in 10.0 mi SE 10.4 mph - N/A   Mostly Cloudy
7:54 AM 28.9 °F 19.8 °F 19.0 °F 67% 30.29 in 8.0 mi SSE 10.4 mph - N/A   Overcast
8:54 AM 30.0 °F 21.7 °F 21.0 °F 69% 30.30 in 8.0 mi SSE 9.2 mph - N/A   Overcast
9:54 AM 30.9 °F 20.7 °F 21.9 °F 69% 30.26 in 7.0 mi SSE 13.8 mph - N/A   Overcast
10:54 AM 32.0 °F 22.5 °F 24.1 °F 73% 30.19 in 7.0 mi SSE 12.7 mph - 0.00 in   Overcast
11:54 AM 32.0 °F 22.5 °F 27.0 °F 82% 30.15 in 4.0 mi SSE 12.7 mph - 0.03 in   Overcast
12:15 PM 32.0 °F 21.6 °F 28.0 °F 85% 30.12 in 2.5 mi SSE 15.0 mph - 0.01 in Rain Light Rain
12:42 PM 33.1 °F 24.4 °F 28.9 °F 85% 30.10 in 4.0 mi SSE 11.5 mph - 0.03 in Rain Light Rain
12:54 PM 33.1 °F 23.0 °F 28.9 °F 85% 30.11 in 4.0 mi SSE 15.0 mph 24.2 mph 0.03 in   Overcast
1:01 PM 33.1 °F 23.4 °F 28.9 °F 85% 30.07 in 4.0 mi SE 13.8 mph 24.2 mph N/A   Overcast
1:13 PM 33.1 °F 23.0 °F 30.0 °F 89% 30.06 in 2.5 mi SE 15.0 mph 24.2 mph 0.00 in Rain Light Rain
1:46 PM 33.1 °F 23.4 °F 30.9 °F 92% 30.04 in 2.5 mi SE 13.8 mph 23.0 mph 0.02 in Rain Light Rain
1:54 PM 34.0 °F 24.2 °F 30.9 °F 89% 30.08 in 3.0 mi SSE 15.0 mph 25.3 mph 0.03 in Rain Light Rain
2:00 PM 33.1 °F 23.4 °F 30.9 °F 92% 30.05 in 2.0 mi SSE 13.8 mph - 0.01 in Rain Rain
2:07 PM 33.1 °F 21.9 °F 30.9 °F 92% 30.05 in 1.5 mi SSE 18.4 mph 24.2 mph 0.03 in Rain Rain
2:16 PM 34.0 °F 25.0 °F 32.0 °F 92% 30.03 in 1.2 mi SSE 12.7 mph - 0.06 in Rain Rain
2:25 PM 34.0 °F 24.2 °F 32.0 °F 92% 30.01 in 1.2 mi SE 15.0 mph 26.5 mph 0.11 in Rain Light Rain
2:29 PM 34.0 °F 24.2 °F 33.1 °F 96% 30.01 in 2.0 mi SSE 15.0 mph 23.0 mph 0.11 in Rain Light Rain
2:40 PM 35.1 °F 25.5 °F 33.1 °F 92% 30.02 in 3.0 mi SSE 15.0 mph 27.6 mph 0.11 in   Overcast
2:54 PM 35.1 °F 24.1 °F 33.1 °F 92% 30.03 in 4.0 mi SSE 19.6 mph 26.5 mph 0.11 in Rain Light Rain
3:54 PM 36.0 °F 27.1 °F 34.0 °F 93% 30.03 in 4.0 mi South 13.8 mph - 0.00 in   Overcast
4:54 PM 36.0 °F 26.7 °F 34.0 °F 93% 30.00 in 3.0 mi South 15.0 mph 23.0 mph N/A   Overcast
5:54 PM 37.0 °F 27.4 °F 35.1 °F 93% 29.98 in 4.0 mi South 17.3 mph 20.7 mph N/A   Overcast
6:36 PM 37.0 °F 28.9 °F 35.1 °F 93% 29.93 in 3.0 mi SSE 12.7 mph - 0.00 in Rain Light Rain
6:54 PM 37.0 °F 30.4 °F 35.1 °F 93% 29.96 in 3.0 mi SSE 9.2 mph - 0.00 in Rain Light Rain
7:54 PM 37.9 °F 29.6 °F 36.0 °F 93% 29.94 in 3.0 mi SSE 13.8 mph 21.9 mph 0.01 in   Overcast
8:27 PM 37.9 °F 31.5 °F 37.0 °F 97% 29.93 in 2.5 mi SSE 9.2 mph - 0.00 in   Overcast
8:54 PM 37.9 °F 29.6 °F 37.0 °F 97% 29.94 in 2.0 mi SSE 13.8 mph - 0.00 in Rain Light Rain
9:18 PM 39.0 °F 32.3 °F 37.9 °F 96% 29.93 in 1.8 mi South 10.4 mph - 0.00 in Rain Light Rain
9:33 PM 39.0 °F 33.4 °F 37.9 °F 96% 29.93 in 1.2 mi South 8.1 mph - 0.01 in Rain Light Rain
9:54 PM 39.0 °F 32.8 °F 37.9 °F 96% 29.95 in 0.5 mi South 9.2 mph - 0.01 in Fog Fog
10:14 PM 39.0 °F 33.4 °F 39.0 °F 100% 29.93 in 0.2 mi South 8.1 mph - N/A Fog Fog
10:54 PM 42.1 °F 36.1 °F 41.0 °F 96% 29.94 in 0.5 mi South 10.4 mph - N/A Fog Fog
11:54 PM 44.1 °F 37.4 °F 43.0 °F 96% 29.92 in 0.5 mi South 13.8 mph - N/A Fog Fog